Location: Ferchesar
(52.6477°N, 12.4298°E)
Time: 09:14:13
(UTC+01:00)

Tiros 1 despin weight - Pass Details

Date: 08 December 2021
Orbit: 592 x 641 km, 48.2° (Epoch: 19 January)

Event Time Altitude Azimuth Distance (km) Brightness Sun altitude
Rises 10:44:43 0° 190° (S) 2,846 ? 12.7°
Reaches altitude 10° 10:48:59 10° 151° (SSE) 1,936 ? 12.9°
Maximum altitude 10:49:52 11° 139° (SE) 1,900 ? 13.0°
Drops below altitude 10° 10:50:44 10° 128° (SE) 1,932 ? 13.0°
Sets 10:54:59 0° 89° (E) 2,832 ? 13.2°
